Lexington Weather

Lexington, Massachusetts, USA

66°F
9/23/2021 3:54am 
  • Lexington Conditions: Few Clouds
  • Temperature: 66.4°F / 19.1°CWarmer 0.2°F than last hour.
  • Dew Point: 65.1°FIncreased 0.2°Fsince last hour.
  • Relative Humidity: 96
  • Wind: Calm, 10-min avg: Calm, gust: 3 mph
  • Barometer: 30.04 in Steady
  • Visibility: 10 miles
  • Rain Today: 0.00 in
  •   

Regional Weather Roundup
for Boston / Norton, MA

        
000
ASUS41 KBOX 190904
RWRBOX

REGIONAL WEATHER ROUNDUP
NATIONAL WEATHER SERVICE BOSTON/NORTON MA
500 AM EDT SUN SEP 19 2021

NOTE:  "FAIR" INDICATES FEW OR NO CLOUDS BELOW 12,000 FEET WITH NO 
SIGNIFICANT WEATHER AND/OR OBSTRUCTIONS TO VISIBILITY.

MAZALL-191000-
EASTERN MASSACHUSETTS
  
CITY           SKY/WX    TMP DP  RH WIND       PRES   REMARKS
BOSTON         CLOUDY    67  60  78 N9        30.05R                  
BEVERLY        CLOUDY    64  61  90 N7        30.04R                  
LAWRENCE       CLOUDY    63  59  87 NW5       30.08R                  
BEDFORD        CLOUDY    62  60  93 N7        30.05R                  
BLUE HILL      NOT AVBL                                               
NORWOOD        CLOUDY    64  60  87 CALM      30.04R                  
MARSHFIELD     CLOUDY    64  59  82 N8G17     30.03R                  
PLYMOUTH       CLOUDY    64  60  87 N10       30.03R                  
TAUNTON        CLOUDY    64  61  90 N10G17    30.03R                  
NEW BEDFORD    CLOUDY    66  64  93 VRB5G16   30.01R                  
$$

MAZALL-191000-
CAPE COD AND THE ISLANDS
  
CITY           SKY/WX    TMP DP  RH WIND       PRES   REMARKS
FALMOUTH       CLOUDY    64  64 100 N9        30.00R                  
HYANNIS        CLOUDY    66  64  93 N12G23    29.98R                  
CHATHAM        CLOUDY    66  64  93 N9        30.00R                  
PROVINCETOWN   CLOUDY    65  59  81 NE15G21   30.02R                  
NANTUCKET      CLOUDY    70  65  84 N15       29.98R                  
MARTHAS VNYRD  MOCLDY    66  65  96 N9        30.00R                  
$$
 
MAZALL-191000-
CENTRAL AND WESTERN MASSACHUSETTS
  
CITY           SKY/WX    TMP DP  RH WIND       PRES   REMARKS
WORCESTER      MOCLDY    61  50  67 N8        30.08R                  
FITCHBURG      CLOUDY    62  54  74 N5        30.08R                  
ORANGE         CLEAR     55  53  93 NW7       30.11R                  
SPRINGFIELD    CLEAR     60  52  76 N7        30.07R                  
WESTFIELD      CLEAR     60  55  83 N3        30.08R                  
NORTH ADAMS    CLEAR     52  50  93 CALM      30.14R                  
PITTSFIELD     CLEAR     52  50  93 CALM      30.12R                  
$$
 
RIZALL-191000-
RHODE ISLAND
  
CITY           SKY/WX    TMP DP  RH WIND       PRES   REMARKS
PROVIDENCE     CLEAR     67  65  93 N8        30.04R                  
NEWPORT        CLEAR     66  65  96 N9        30.02R                  
BLOCK ISLAND   CLOUDY    66  65  96 N8        30.03R                  
SMITHFIELD     CLOUDY    64  63  96 N8        30.06R                  
WESTERLY       PTCLDY    64  64 100 N9        30.03R                  
$$
 
CTZALL-191000-
CONNECTICUT
  
CITY           SKY/WX    TMP DP  RH WIND       PRES   REMARKS
BRADLEY INTL   PTCLDY    61  57  87 N7        30.08R                  
HARTFORD       CLEAR     65  57  75 N6        30.07R                  
BRIDGEPORT     CLEAR     66  57  72 N8        30.06R                  
DANBURY        CLEAR     63  52  67 NW6       30.11R                  
GROTON         PTCLDY    66  63  90 N10       30.03R                  
NEW HAVEN      CLEAR     68  61  78 NW8       30.06R                  
CHESTER        FAIR      64  57  77 N12       30.06R                  
MERIDEN        CLEAR     64  58  80 NW7       30.07R                  
WILLIMANTIC    CLEAR     62  59  90 N6        30.06R                  
OXFORD         CLEAR     61  56  83 NW9       30.09R                  
$$

MEZ002-015-021-024-NHZ003-005-008-011-012-014-VTZ005-008-191000-
NORTHERN NEW ENGLAND
  
CITY           SKY/WX    TMP DP  RH WIND       PRES   REMARKS
PORTLAND ME    CLEAR     56  53  90 N9        30.07R                  
BANGOR ME      CLEAR     53  47  79 N12       30.07R                  
CONCORD NH     CLOUDY    57  50  77 CALM      30.08R                  
MANCHESTER NH  MOCLDY    64  51  62 N6        30.06R                  
NASHUA NH      CLOUDY    61  58  90 NW5       30.09R                  
PORTSMOUTH NH  MOCLDY    61  53  75 N6        30.07R                  
JAFFREY NH     MOCLDY    54  54 100 CALM      30.11R                  
KEENE NH       CLEAR     52  52 100 CALM      30.12R                  
BURLINGTON VT  CLEAR     50  48  93 CALM      30.17R                  
MT. WASHINGTON PTCLDY    43   9  24 N13         N/A                   
$$

NYZ052-076-191000-
EASTERN NEW YORK
  
CITY           SKY/WX    TMP DP  RH WIND       PRES   REMARKS
ALBANY         PTCLDY    53  53 100 N3        30.14R                  
NEW YORK CITY  CLEAR     69  56  62 N10       30.08R                  
$$
 
ANZALL-191000-
MARINE OBSERVATIONS
  
STATION/POSITION TIME  TEMP    WIND        PRES    VSBY  WAVE
                       AIR SEA DIR/SP/G                  HT/PER
                 (UTC) (F)     (DEG/KT/KT) (MB)    (MI)  (FT/S)
BOSTON BUOY      0840      66   10/ 17/ 19 1017.1R
BUZZARDS BAY     0800          360/ 13/ 15 1016.6R
NANTUCKET SOUND  0840   70 72  350/ 17/ 21 1015.4R
MASS BAY-STELLWA 0804   65      30/ 16/ 19 1016.0R  1 7/8  6/11
ISLE OF SHOALS   0800   64      10/ 16/ 20 1016.3R
S OF BLOCK IS    0826      71                N/A           5/10
$$

......................KEY.........................
  SKY/WX - SKY CONDITION/PRESENT WEATHER
  TMP    - TEMPERATURE IN FAHRENHEIT
  DWPT   - DEWPOINT IN FAHRENHEIT
  RH     - RELATIVE HUMIDITY IN PERCENT
  WIND   - DIRECTION AND SPEED IN MPH
  PRES   - MEAN SEA LEVEL PRESSURE IN INCHES OF HG
  WCI    - WIND CHILL INDEX
  VSB    - VISIBILITY IN MILES
  HX     - HEAT INDEX
  TC     - TEMPERATURE IN CELSIUS
  VRB    - VARIABLE WIND DIRECTION
  N/A    - NOT AVAILABLE
  
      

Other recent Regional Weather Roundups

Thu Sep 23, 3:04am

Thu Sep 23, 2:04am

Thu Sep 23, 1:04am

Thu Sep 23, 12:04am

Wed Sep 22, 11:04pm

Wed Sep 22, 10:04pm

Wed Sep 22, 9:04pm

Wed Sep 22, 8:04pm

Wed Sep 22, 7:04pm

Wed Sep 22, 6:04pm

Wed Sep 22, 5:04pm

Wed Sep 22, 4:04pm

Wed Sep 22, 3:04pm

Wed Sep 22, 2:04pm

Wed Sep 22, 1:04pm

Wed Sep 22, 12:05pm

Wed Sep 22, 11:04am

Wed Sep 22, 10:04am

Wed Sep 22, 9:04am

Wed Sep 22, 8:04am

Wed Sep 22, 7:04am

Wed Sep 22, 6:04am

Wed Sep 22, 5:04am

Wed Sep 22, 4:04am

Wed Sep 22, 3:04am

Wed Sep 22, 2:04am

Wed Sep 22, 1:04am

Wed Sep 22, 12:04am

Tue Sep 21, 11:04pm

Tue Sep 21, 10:04pm

Tue Sep 21, 9:04pm

Tue Sep 21, 8:04pm

Tue Sep 21, 7:04pm

Tue Sep 21, 6:04pm

Tue Sep 21, 5:04pm

Tue Sep 21, 4:04pm

Tue Sep 21, 3:04pm

Tue Sep 21, 2:04pm

Tue Sep 21, 1:04pm

Tue Sep 21, 12:04pm

Tue Sep 21, 11:04am

Tue Sep 21, 10:04am

Tue Sep 21, 9:04am

Tue Sep 21, 8:04am

Tue Sep 21, 7:04am

Tue Sep 21, 6:04am

Tue Sep 21, 5:04am

Tue Sep 21, 4:04am

Tue Sep 21, 3:04am

Tue Sep 21, 2:04am

Tue Sep 21, 1:04am

Tue Sep 21, 12:04am

Mon Sep 20, 11:04pm

Mon Sep 20, 10:04pm

Mon Sep 20, 9:04pm

Mon Sep 20, 8:04pm

Mon Sep 20, 7:04pm

Mon Sep 20, 6:04pm

Mon Sep 20, 5:04pm

Mon Sep 20, 4:04pm

Mon Sep 20, 3:04pm

Mon Sep 20, 2:04pm

Mon Sep 20, 1:04pm

Mon Sep 20, 12:04pm

Mon Sep 20, 11:04am

Mon Sep 20, 10:04am

Mon Sep 20, 9:04am

Mon Sep 20, 7:04am

Mon Sep 20, 6:04am

Mon Sep 20, 5:04am

Mon Sep 20, 4:04am

Mon Sep 20, 3:04am

Mon Sep 20, 2:04am

Mon Sep 20, 1:04am

Mon Sep 20, 12:04am

Sun Sep 19, 11:04pm

Sun Sep 19, 10:04pm

Sun Sep 19, 9:04pm

Sun Sep 19, 8:04pm

Sun Sep 19, 7:04pm

Sun Sep 19, 6:04pm

Sun Sep 19, 5:04pm

Sun Sep 19, 4:04pm

Sun Sep 19, 3:04pm

Sun Sep 19, 2:05pm

Sun Sep 19, 1:04pm

Sun Sep 19, 12:04pm

Sun Sep 19, 11:04am

Sun Sep 19, 10:05am

Sun Sep 19, 9:04am

Sun Sep 19, 8:04am

Sun Sep 19, 7:04am

Sun Sep 19, 6:04am

Sun Sep 19, 4:04am

Sun Sep 19, 3:04am

Sun Sep 19, 2:04am

Sun Sep 19, 1:04am

Sun Sep 19, 12:04am

Sat Sep 18, 11:05pm

Sat Sep 18, 10:04pm

Sat Sep 18, 9:04pm

Sat Sep 18, 8:04pm

Sat Sep 18, 7:04pm

Sat Sep 18, 6:04pm

Sat Sep 18, 5:04pm

Sat Sep 18, 4:04pm

Sat Sep 18, 3:04pm

Sat Sep 18, 2:04pm

Sat Sep 18, 1:04pm

Sat Sep 18, 12:04pm

Sat Sep 18, 11:04am

Sat Sep 18, 10:04am

Sat Sep 18, 9:04am

Sat Sep 18, 8:04am

Sat Sep 18, 7:04am

Sat Sep 18, 6:04am

Sat Sep 18, 5:04am

Sat Sep 18, 4:04am

Sat Sep 18, 3:04am

Sat Sep 18, 2:04am

Sat Sep 18, 1:04am

Sat Sep 18, 12:04am

Fri Sep 17, 11:04pm

Fri Sep 17, 10:04pm

Fri Sep 17, 9:04pm

Fri Sep 17, 8:04pm

Fri Sep 17, 7:04pm

Fri Sep 17, 6:04pm

Fri Sep 17, 5:04pm

Fri Sep 17, 4:04pm

Fri Sep 17, 3:04pm

Fri Sep 17, 2:04pm

Fri Sep 17, 1:04pm

Fri Sep 17, 12:05pm

Fri Sep 17, 11:04am

Fri Sep 17, 10:04am

Fri Sep 17, 9:04am

Fri Sep 17, 8:04am

Fri Sep 17, 7:04am

Fri Sep 17, 6:04am

Fri Sep 17, 5:04am

Fri Sep 17, 4:04am

Fri Sep 17, 3:04am

Fri Sep 17, 2:04am

Fri Sep 17, 1:04am

Fri Sep 17, 12:04am

Thu Sep 16, 11:04pm

Thu Sep 16, 10:04pm

Thu Sep 16, 9:04pm

Thu Sep 16, 8:04pm

Thu Sep 16, 7:04pm

Thu Sep 16, 6:04pm

Thu Sep 16, 5:04pm

Thu Sep 16, 4:04pm

Thu Sep 16, 3:04pm

Thu Sep 16, 2:04pm

Thu Sep 16, 1:05pm

Thu Sep 16, 12:04pm

Thu Sep 16, 11:05am

Thu Sep 16, 10:05am

Thu Sep 16, 9:04am

Thu Sep 16, 8:04am

Thu Sep 16, 7:04am

Thu Sep 16, 6:04am

Thu Sep 16, 5:04am

Thu Sep 16, 4:04am

Meta data:

ID: 4a0fd4ea-75ee-4f7a-99ca-e56e9c3bf9d3
Link: https://api.weather.gov/products/4a0fd4ea-75ee-4f7a-99ca-e56e9c3bf9d3